Weather History for CWSA - January, 2013

Change the Weather History Date:

Thursday, January 31, 2013

  Actual Average Record
Temperature  
Mean Temperature 45 °F -  
Max Temperature 50 °F 32 °F 50 °F (2013)
Min Temperature 40 °F 24 °F 15 °F (1997)
Degree Days  
Heating Degree Days 20    
Moisture  
Dew Point 45 °F    
Average Humidity 95    
Maximum Humidity 100    
Minimum Humidity 87    
Precipitation  
Precipitation 0.04 in - - ()
Sea Level Pressure  
Sea Level Pressure 29.61 in    
Wind  
Wind Speed 28 mph ()    
Max Wind Speed 45 mph    
Max Gust Speed 61 mph    
Visibility 1.9 miles    
Events Rain    
Averages and records for this station are not official NWS values.
T = Trace of Precipitation, MM = Missing Value Source: Averaged Metar Reports

Daily Weather History Graph

Daily Weather History Graph

Search for Another Location

Airport or City:

Trip Planner

Search our weather history database for the weather conditions in past years. The results will help you decide how hot, cold, wet, or windy it might be!

Date:

Astronomy

Jan. 31, 2013 Rise Set
Actual Time 7:18 AM AST 5:09 PM AST
Civil Twilight 6:47 AM AST 5:40 PM AST
Nautical Twilight 6:12 AM AST 6:14 PM AST
Astronomical Twilight 5:39 AM AST 6:48 PM AST
Moon 10:19 PM AST (1/31) 9:03 AM AST (1/31)
Length of Visible Light 10h 52m
Length of Day
9h 51m
Waning Gibbous, 80% of the Moon is Illuminated
Jan 31
Waning Gibbous
Feb 3
Last Quarter
Feb 10
New
Feb 17
First Quarter
Feb 25
Full

Hourly Weather History & Observations

Time (AST) Temp. Windchill Dew Point Humidity Pressure Visibility Wind Dir Wind Speed Gust Speed Precip Events Conditions
12:00 AM 42.8 °F 32.7 °F 41.0 °F 93% 29.91 in 4.0 mi SSW 27.6 mph 34.5 mph N/A   Overcast
1:00 AM 44.6 °F 34.6 °F 42.8 °F 93% 29.88 in 3.0 mi SSW 31.1 mph - N/A   Partly Cloudy
1:29 AM 44.6 °F 34.9 °F 42.8 °F 93% 29.88 in 3.0 mi SSW 28.8 mph 35.7 mph N/A   Mostly Cloudy
1:49 AM 44.6 °F 34.9 °F 42.8 °F 93% 29.88 in 2.5 mi SSW 28.8 mph 34.5 mph N/A   Overcast
2:00 AM 44 °F - 42 °F 92% 29.89 in 2 mi SSW 26.5 mph - -   Unknown Precipitation
2:00 AM 44.6 °F 35.5 °F 42.8 °F 93% 29.89 in 2.5 mi SSW 25.3 mph 31.1 mph N/A   Mostly Cloudy
2:33 AM 44.6 °F 34.7 °F 42.8 °F 93% 29.86 in 2.4 mi SSW 29.9 mph 35.7 mph N/A   Mostly Cloudy
2:35 AM 44.6 °F 34.6 °F 42.8 °F 93% 29.86 in 2.5 mi SSW 31.1 mph 36.8 mph N/A   Overcast
2:36 AM 44.6 °F 34.4 °F 44.6 °F 100% 29.86 in 2.5 mi SSW 32.2 mph - N/A   Overcast
3:00 AM 46.4 °F 36.5 °F 44.6 °F 93% 29.84 in 2.4 mi SSW 34.5 mph 41.4 mph N/A   Mostly Cloudy
3:05 AM 46.4 °F 36.4 °F 44.6 °F 93% 29.84 in 2.4 mi SSW 35.7 mph 41.4 mph N/A   Scattered Clouds
3:09 AM 44.6 °F 34.4 °F 42.8 °F 93% 29.83 in 2.4 mi SSW 32.2 mph 39.1 mph N/A   Mostly Cloudy
3:11 AM 44.6 °F 34.4 °F 42.8 °F 93% 29.83 in 2.4 mi SSW 32.2 mph 39.1 mph N/A   Mostly Cloudy
3:36 AM 44.6 °F 34.2 °F 42.8 °F 93% 29.83 in 2.1 mi SSW 33.4 mph - N/A   Scattered Clouds
3:41 AM 44.6 °F 34.6 °F 42.8 °F 93% 29.83 in 2.1 mi SSW 31.1 mph 38.0 mph N/A   Mostly Cloudy
4:00 AM 44.6 °F 34.4 °F 44.6 °F 100% 29.83 in 2.0 mi SSW 32.2 mph - N/A   Overcast
4:27 AM 44.6 °F 34.6 °F 42.8 °F 93% 29.83 in 2.0 mi SSW 31.1 mph 36.8 mph N/A   Overcast
4:40 AM 44.6 °F 35.3 °F 44.6 °F 100% 29.83 in 2.0 mi SSW 26.5 mph 32.2 mph N/A   Overcast
4:54 AM 44.6 °F 35.5 °F 44.6 °F 100% 29.83 in 2.0 mi SSW 25.3 mph 33.4 mph N/A   Overcast
5:00 AM 44 °F - 44 °F 100% 29.83 in 2 mi SSW 26.5 mph - -   Overcast
5:00 AM 44.6 °F 35.1 °F 44.6 °F 100% 29.83 in 2.0 mi SSW 27.6 mph 33.4 mph N/A   Overcast
5:27 AM 44.6 °F 35.3 °F 42.8 °F 93% 29.83 in 2.1 mi SSW 26.5 mph 32.2 mph N/A   Overcast
5:51 AM 44.6 °F 35.3 °F 44.6 °F 100% 29.82 in 2.1 mi SSW 26.5 mph - N/A   Overcast
5:56 AM 44.6 °F 35.3 °F 44.6 °F 100% 29.81 in 2.1 mi SSW 26.5 mph - N/A   Overcast
6:00 AM 44.6 °F 35.3 °F 44.6 °F 100% 29.82 in 2.1 mi South 26.5 mph 33.4 mph N/A   Mostly Cloudy
6:13 AM 44.6 °F 35.5 °F 42.8 °F 93% 29.81 in 2.1 mi South 25.3 mph - N/A   Overcast
6:18 AM 44.6 °F 35.3 °F 44.6 °F 100% 29.81 in 2.1 mi SSW 26.5 mph - N/A   Overcast
7:00 AM 44.6 °F 35.5 °F 44.6 °F 100% 29.81 in 2.0 mi SSW 25.3 mph 32.2 mph N/A   Overcast
7:32 AM 44.6 °F 35.1 °F 42.8 °F 93% 29.78 in 2.0 mi South 27.6 mph 33.4 mph N/A   Overcast
7:58 AM 44.6 °F 35.9 °F 44.6 °F 100% 29.78 in 1.4 mi South 23.0 mph 31.1 mph N/A   Overcast
8:00 AM 44 °F - 44 °F 98% 29.78 in 1 mi South 24.2 mph - -   Overcast
8:21 AM 44.6 °F 35.5 °F 42.8 °F 93% 29.77 in 1.4 mi South 25.3 mph - N/A   Overcast
8:28 AM 44.6 °F 35.5 °F 44.6 °F 100% 29.77 in 1.6 mi South 25.3 mph 31.1 mph N/A   Overcast
9:00 AM 44.6 °F 35.5 °F 44.6 °F 100% 29.76 in 2.5 mi South 25.3 mph 31.1 mph N/A   Overcast
10:00 AM 46.4 °F 37.4 °F 44.6 °F 93% 29.75 in 2.5 mi South 28.8 mph 34.5 mph N/A   Overcast
10:24 AM 46.4 °F 37.5 °F 44.6 °F 93% 29.72 in 2.5 mi South 27.6 mph 33.4 mph N/A   Overcast
10:28 AM 46.4 °F 37.4 °F 46.4 °F 100% 29.72 in 2.5 mi South 28.8 mph - N/A   Unknown
10:54 AM 46.4 °F 37.5 °F 44.6 °F 93% 29.71 in 2.5 mi South 27.6 mph 35.7 mph N/A   Mostly Cloudy
11:00 AM 47 °F - 45 °F 90% 29.71 in 2 mi South 27.6 mph - -  
11:00 AM 46.4 °F 37.5 °F 44.6 °F 93% 29.71 in 2.5 mi South 27.6 mph 33.4 mph N/A   Mostly Cloudy
11:16 AM 46.4 °F 37.5 °F 44.6 °F 93% 29.68 in 2.5 mi South 27.6 mph 36.8 mph N/A   Overcast
12:00 PM 48.2 °F - 46.4 °F 93% 29.66 in 2.4 mi South 28.8 mph 38.0 mph N/A   Unknown
12:58 PM 48.2 °F - 46.4 °F 93% 29.63 in 2.2 mi South 28.8 mph - N/A   Unknown
1:00 PM 46.4 °F 37.5 °F 46.4 °F 100% 29.63 in 2.2 mi South 27.6 mph 33.4 mph N/A   Unknown
1:56 PM 48.2 °F - 46.4 °F 93% 29.59 in 2.1 mi South 29.9 mph 36.8 mph N/A   Overcast
2:00 PM 47 °F - 46 °F 92% 29.59 in 2 mi South 29.9 mph - -   Overcast
2:00 PM 48.2 °F - 46.4 °F 93% 29.59 in 2.1 mi South 29.9 mph - N/A   Overcast
2:01 PM 48.2 °F - 46.4 °F 93% 29.58 in 2.1 mi South 31.1 mph 36.8 mph N/A   Overcast
2:07 PM 48.2 °F - 46.4 °F 93% 29.58 in 2.1 mi South 29.9 mph 36.8 mph N/A   Unknown
2:21 PM 48.2 °F - 46.4 °F 93% 29.56 in 2.1 mi South 29.9 mph 36.8 mph N/A   Unknown
3:00 PM 48.2 °F - 46.4 °F 93% 29.55 in 2.1 mi South 27.6 mph 36.8 mph N/A   Unknown
3:50 PM 48.2 °F - 46.4 °F 93% 29.50 in 2.1 mi South 31.1 mph 41.4 mph N/A   Unknown
4:00 PM 48.2 °F - 46.4 °F 93% 29.50 in 2.0 mi South 31.1 mph 40.3 mph N/A   Unknown
4:27 PM 48.2 °F - 46.4 °F 93% 29.47 in 1.8 mi South 29.9 mph 36.8 mph N/A   Overcast
4:47 PM 48.2 °F - 46.4 °F 93% 29.45 in 1.5 mi South 32.2 mph 39.1 mph N/A   Overcast
5:00 PM 48 °F - 47 °F 93% 29.45 in 1 mi South 31.1 mph - -   Overcast
5:00 PM 48.2 °F - 46.4 °F 93% 29.45 in 1.5 mi South 31.1 mph 40.3 mph N/A   Overcast
5:10 PM 48.2 °F - 46.4 °F 93% 29.44 in 1.4 mi South 31.1 mph 40.3 mph N/A   Overcast
5:23 PM 48.2 °F - 46.4 °F 93% 29.42 in 1.4 mi South 28.8 mph 39.1 mph N/A   Overcast
5:37 PM 48.2 °F - 46.4 °F 93% 29.42 in 1.4 mi South 29.9 mph 40.3 mph N/A   Overcast
5:53 PM 48.2 °F - 48.2 °F 100% 29.41 in 1.4 mi South 32.2 mph 39.1 mph N/A Rain Light Rain
5:57 PM 48.2 °F - 48.2 °F 100% 29.41 in 1.2 mi South 33.4 mph 39.1 mph N/A Rain Light Rain
6:00 PM 48.2 °F - 46.4 °F 93% 29.42 in 1.1 mi South 33.4 mph 40.3 mph N/A Rain Rain
6:20 PM 48.2 °F - 46.4 °F 93% 29.38 in 1.2 mi South 32.2 mph 42.6 mph N/A Rain Light Rain
6:27 PM 50.0 °F - 48.2 °F 94% 29.38 in 1.2 mi South 33.4 mph 42.6 mph N/A   Overcast
6:32 PM 48.2 °F - 48.2 °F 100% 29.38 in 1.2 mi South 32.2 mph 41.4 mph N/A Rain Light Rain
7:00 PM 50.0 °F - 48.2 °F 94% 29.36 in 1.0 mi South 34.5 mph 43.7 mph N/A Rain Light Rain
7:12 PM 48.2 °F - 46.4 °F 93% 29.35 in 0.6 mi South 34.5 mph 42.6 mph N/A Rain Light Rain
7:32 PM 50.0 °F - 48.2 °F 94% 29.34 in 1.0 mi South 34.5 mph 40.3 mph N/A Rain Light Rain
8:00 PM 49 °F - 47 °F 91% 29.32 in 1 mi South 33.4 mph - -   Unknown Precipitation
8:00 PM 50.0 °F - 46.4 °F 87% 29.32 in 1.0 mi South 34.5 mph 41.4 mph N/A Rain Light Rain
8:10 PM 50.0 °F - 48.2 °F 94% 29.31 in 0.6 mi South 34.5 mph 41.4 mph N/A Rain Rain
8:29 PM 50.0 °F - 48.2 °F 94% 29.29 in 1.0 mi South 34.5 mph 42.6 mph N/A Rain Light Rain
8:42 PM 50.0 °F - 48.2 °F 94% 29.29 in 0.8 mi South 35.7 mph 44.9 mph N/A Rain Light Rain
8:49 PM 48.2 °F - 48.2 °F 100% 29.30 in 0.6 mi SSW 34.5 mph 44.9 mph N/A Rain Light Rain
8:54 PM 50.0 °F - 48.2 °F 94% 29.32 in 0.6 mi SSW 44.9 mph - N/A Rain Light Rain
9:00 PM 50.0 °F - 48.2 °F 94% 29.33 in 0.8 mi SSW 41.4 mph 61.0 mph N/A Rain Light Rain
9:03 PM 48.2 °F - 48.2 °F 100% 29.33 in 1.0 mi SW 33.4 mph 61.0 mph N/A Rain Light Rain
9:13 PM 46.4 °F 36.7 °F 46.4 °F 100% 29.34 in 1.1 mi SSW 33.4 mph 40.3 mph N/A Rain Light Rain
9:22 PM 46.4 °F 36.4 °F 46.4 °F 100% 29.35 in 1.4 mi SSW 35.7 mph 43.7 mph N/A Rain Light Rain
9:29 PM 46.4 °F 36.7 °F 46.4 °F 100% 29.34 in 1.4 mi SW 33.4 mph 41.4 mph N/A   Overcast
9:32 PM 46.4 °F 36.9 °F 46.4 °F 100% 29.34 in 1.8 mi SW 32.2 mph 38.0 mph N/A   Overcast
10:00 PM 44.6 °F 35.3 °F 44.6 °F 100% 29.36 in 1.6 mi SW 26.5 mph 33.4 mph N/A   Overcast
10:07 PM 44.6 °F 35.3 °F 44.6 °F 100% 29.34 in 1.8 mi SW 26.5 mph - N/A   Overcast
11:00 PM 42 °F - 40 °F 88% 29.38 in 3 mi SW 26.5 mph - -   Overcast
11:00 PM 41.0 °F 30.2 °F 39.2 °F 93% 29.38 in 3.0 mi SW 27.6 mph - N/A   Overcast